AAL2421 KPHX-KSFO

Flight info

Callsign AAL2421
Flight time 1h 37m
Altitude 34000
Route KEENS3 HRRBR CURIV J212 DECAS PMD AVE MAKRS SERFR SERFR4
Aircraft A321/M-SDE3FGHIRWY/LB1

Departure

Time 2026-05-05 12:03
Airport Phoenix Sky Harbor International Airport (KPHX)

Arrival

Time 2026-05-05 13:41
Airport San Francisco International Airport (KSFO)
Time Latitude Longitude Altitude Speed Heading
2026-05-05 11:35 33.43815 -111.99627 1125 ft 0 kts 243°
2026-05-05 11:46 33.43820 -111.99608 1125 ft 4 kts 270°
2026-05-05 11:46 33.43820 -111.99584 1125 ft 4 kts 308°
2026-05-05 11:47 33.43802 -111.99576 1125 ft 3 kts
2026-05-05 11:47 33.43775 -111.99577 1115 ft 4 kts
2026-05-05 11:47 33.43748 -111.99577 1122 ft 4 kts
2026-05-05 11:47 33.43721 -111.99577 1116 ft 4 kts
2026-05-05 11:48 33.43715 -111.99577 1124 ft 0 kts
2026-05-05 11:52 33.43724 -111.99576 1124 ft 4 kts
2026-05-05 11:52 33.43773 -111.99575 1118 ft 10 kts
2026-05-05 11:53 33.43852 -111.99575 1117 ft 11 kts
2026-05-05 11:53 33.43903 -111.99531 1126 ft 9 kts 71°
2026-05-05 11:53 33.43902 -111.99462 1123 ft 8 kts 92°
2026-05-05 11:53 33.43901 -111.99394 1119 ft 9 kts 90°
2026-05-05 11:54 33.43902 -111.99315 1122 ft 10 kts 88°
2026-05-05 11:54 33.43878 -111.99235 1118 ft 12 kts 153°
2026-05-05 11:54 33.43786 -111.99227 1122 ft 13 kts 181°
2026-05-05 11:54 33.43700 -111.99228 1117 ft 11 kts 180°
2026-05-05 11:55 33.43621 -111.99229 1115 ft 12 kts 181°
2026-05-05 11:55 33.43522 -111.99227 1124 ft 16 kts 179°
2026-05-05 11:55 33.43421 -111.99245 1120 ft 13 kts 195°
2026-05-05 11:55 33.43339 -111.99248 1122 ft 11 kts 179°
2026-05-05 11:56 33.43265 -111.99245 1125 ft 11 kts 178°
2026-05-05 11:56 33.43214 -111.99288 1122 ft 8 kts 254°
2026-05-05 11:56 33.43211 -111.99359 1118 ft 9 kts 269°
2026-05-05 11:56 33.43211 -111.99428 1121 ft 8 kts 271°
2026-05-05 11:57 33.43214 -111.99500 1120 ft 10 kts 272°
2026-05-05 11:57 33.43214 -111.99581 1120 ft 12 kts 269°
2026-05-05 11:57 33.43214 -111.99713 1127 ft 20 kts 269°
2026-05-05 11:57 33.43214 -111.99873 1123 ft 18 kts 271°
2026-05-05 11:58 33.43215 -112.00011 1119 ft 15 kts 270°
2026-05-05 11:58 33.43214 -112.00126 1127 ft 13 kts 268°
2026-05-05 11:58 33.43213 -112.00231 1123 ft 13 kts 269°
2026-05-05 11:58 33.43213 -112.00346 1120 ft 15 kts 271°
2026-05-05 11:59 33.43214 -112.00484 1124 ft 18 kts 270°
2026-05-05 11:59 33.43213 -112.00647 1120 ft 21 kts 270°
2026-05-05 11:59 33.43215 -112.00824 1117 ft 22 kts 270°
2026-05-05 11:59 33.43214 -112.01008 1119 ft 22 kts 270°
2026-05-05 12:00 33.43214 -112.01197 1117 ft 23 kts 270°
2026-05-05 12:00 33.43216 -112.01391 1125 ft 24 kts 270°
2026-05-05 12:00 33.43215 -112.01588 1122 ft 24 kts 269°
2026-05-05 12:00 33.43214 -112.01786 1125 ft 24 kts 271°
2026-05-05 12:01 33.43216 -112.01987 1122 ft 24 kts 270°
2026-05-05 12:01 33.43217 -112.02187 1120 ft 24 kts 270°
2026-05-05 12:01 33.43218 -112.02390 1125 ft 25 kts 270°
2026-05-05 12:01 33.43185 -112.02538 1119 ft 15 kts 218°
2026-05-05 12:02 33.43100 -112.02529 1121 ft 12 kts 109°
2026-05-05 12:02 33.43101 -112.02389 1126 ft 36 kts 91°
2026-05-05 12:02 33.43103 -112.02051 1120 ft 83 kts 89°
2026-05-05 12:02 33.43100 -112.01104 1133 ft 142 kts 90°
2026-05-05 12:03 33.43106 -111.99733 1276 ft 175 kts 90°
2026-05-05 12:03 33.43119 -111.98311 1954 ft 172 kts 91°
2026-05-05 12:03 33.43142 -111.96855 2555 ft 177 kts 90°
2026-05-05 12:03 33.43198 -111.95383 3138 ft 179 kts 88°
2026-05-05 12:04 33.43263 -111.93820 3374 ft 198 kts 88°
2026-05-05 12:04 33.43329 -111.92084 3525 ft 220 kts 88°
2026-05-05 12:04 33.43392 -111.90180 3814 ft 234 kts 89°
2026-05-05 12:04 33.43323 -111.88227 4417 ft 237 kts 106°
2026-05-05 12:05 33.42541 -111.86513 5045 ft 238 kts 136°
2026-05-05 12:05 33.41237 -111.85297 5699 ft 239 kts 145°
2026-05-05 12:05 33.39855 -111.84165 6351 ft 242 kts 154°
2026-05-05 12:05 33.38234 -111.83709 6956 ft 243 kts 184°
2026-05-05 12:06 33.36648 -111.84280 7560 ft 245 kts 213°
2026-05-05 12:06 33.35479 -111.85775 8169 ft 248 kts 244°
2026-05-05 12:06 33.35111 -111.87750 8756 ft 251 kts 273°
2026-05-05 12:06 33.35290 -111.89842 9354 ft 254 kts 275°
2026-05-05 12:07 33.35495 -111.91939 9996 ft 254 kts 274°
2026-05-05 12:07 33.35704 -111.94091 10327 ft 270 kts 273°
2026-05-05 12:07 33.35920 -111.96415 10460 ft 292 kts 273°
2026-05-05 12:07 33.36148 -111.98909 10590 ft 312 kts 273°
2026-05-05 12:08 33.36393 -112.01569 10718 ft 331 kts 273°
2026-05-05 12:08 33.36727 -112.04362 10852 ft 349 kts 276°
2026-05-05 12:08 33.37154 -112.07284 11093 ft 361 kts 277°
2026-05-05 12:08 33.37626 -112.10251 11593 ft 365 kts 277°
2026-05-05 12:09 33.38109 -112.13235 12181 ft 366 kts 276°
2026-05-05 12:09 33.38586 -112.16225 12762 ft 366 kts 275°
2026-05-05 12:09 33.39048 -112.19218 13303 ft 368 kts 275°
2026-05-05 12:09 33.39500 -112.22237 13824 ft 370 kts 275°
2026-05-05 12:10 33.39948 -112.25278 14329 ft 372 kts 275°
2026-05-05 12:10 33.40395 -112.28341 14829 ft 375 kts 275°
2026-05-05 12:10 33.40845 -112.31425 15317 ft 377 kts 275°
2026-05-05 12:10 33.41299 -112.34524 15778 ft 379 kts 274°
2026-05-05 12:11 33.41756 -112.37641 16224 ft 382 kts 275°
2026-05-05 12:11 33.42214 -112.40777 16659 ft 384 kts 275°
2026-05-05 12:11 33.42672 -112.43938 17097 ft 386 kts 275°
2026-05-05 12:11 33.43129 -112.47105 17515 ft 388 kts 274°
2026-05-05 12:12 33.43594 -112.50305 17923 ft 390 kts 274°
2026-05-05 12:12 33.44060 -112.53517 18329 ft 392 kts 274°
2026-05-05 12:12 33.44525 -112.56739 18738 ft 394 kts 274°
2026-05-05 12:12 33.44952 -112.59977 19148 ft 392 kts 270°
2026-05-05 12:13 33.45055 -112.63223 19545 ft 390 kts 265°
2026-05-05 12:13 33.45094 -112.66477 19983 ft 391 kts 265°
2026-05-05 12:13 33.45136 -112.69733 20389 ft 392 kts 265°
2026-05-05 12:13 33.45177 -112.73012 20802 ft 394 kts 265°
2026-05-05 12:14 33.45219 -112.76287 21206 ft 394 kts 265°
2026-05-05 12:14 33.45309 -112.79579 21588 ft 398 kts 269°
2026-05-05 12:14 33.45789 -112.82870 21947 ft 405 kts 276°
2026-05-05 12:14 33.46410 -112.86164 22301 ft 406 kts 276°
2026-05-05 12:15 33.47034 -112.89470 22630 ft 408 kts 276°
2026-05-05 12:15 33.47659 -112.92789 22955 ft 410 kts 275°
2026-05-05 12:15 33.48285 -112.96121 23290 ft 411 kts 276°
2026-05-05 12:15 33.48913 -112.99462 23631 ft 412 kts 276°
2026-05-05 12:16 33.49542 -113.02819 23953 ft 413 kts 276°
2026-05-05 12:16 33.50160 -113.06137 24268 ft 414 kts 275°
2026-05-05 12:16 33.50786 -113.09509 24584 ft 416 kts 275°
2026-05-05 12:16 33.51414 -113.12893 24894 ft 417 kts 275°
2026-05-05 12:17 33.52042 -113.16286 25210 ft 418 kts 275°
2026-05-05 12:17 33.52671 -113.19691 25506 ft 418 kts 275°
2026-05-05 12:17 33.53296 -113.23094 25794 ft 419 kts 274°
2026-05-05 12:17 33.53921 -113.26510 26052 ft 420 kts 274°
2026-05-05 12:18 33.54548 -113.29930 26294 ft 421 kts 274°
2026-05-05 12:18 33.55179 -113.33365 26528 ft 422 kts 274°
2026-05-05 12:18 33.55809 -113.36799 26753 ft 423 kts 274°
2026-05-05 12:18 33.56440 -113.40248 26963 ft 423 kts 274°
2026-05-05 12:19 33.57070 -113.43693 27171 ft 424 kts 273°
2026-05-05 12:19 33.57701 -113.47140 27388 ft 423 kts 273°
2026-05-05 12:19 33.58329 -113.50585 27664 ft 422 kts 273°
2026-05-05 12:19 33.58957 -113.54017 27945 ft 420 kts 273°
2026-05-05 12:20 33.59590 -113.57428 28238 ft 419 kts 272°
2026-05-05 12:20 33.60230 -113.60830 28542 ft 416 kts 272°
2026-05-05 12:20 33.60870 -113.64204 28819 ft 414 kts 272°
2026-05-05 12:20 33.61508 -113.67572 29084 ft 413 kts 272°
2026-05-05 12:21 33.62137 -113.70924 29338 ft 411 kts 271°
2026-05-05 12:21 33.62757 -113.74269 29601 ft 409 kts 271°
2026-05-05 12:21 33.63370 -113.77591 29873 ft 407 kts 271°
2026-05-05 12:21 33.63977 -113.80900 30137 ft 405 kts 270°
2026-05-05 12:22 33.64578 -113.84187 30391 ft 403 kts 270°
2026-05-05 12:22 33.65176 -113.87472 30599 ft 402 kts 270°
2026-05-05 12:22 33.65776 -113.90752 30837 ft 401 kts 271°
2026-05-05 12:22 33.66375 -113.94010 31097 ft 399 kts 270°
2026-05-05 12:23 33.66972 -113.97265 31312 ft 399 kts 270°
2026-05-05 12:23 33.67567 -114.00509 31519 ft 397 kts 270°
2026-05-05 12:23 33.68153 -114.03707 31695 ft 398 kts 270°
2026-05-05 12:23 33.68752 -114.06983 31881 ft 397 kts 270°
2026-05-05 12:24 33.69333 -114.10173 32119 ft 395 kts 270°
2026-05-05 12:24 33.69918 -114.13391 32324 ft 394 kts 270°
2026-05-05 12:24 33.70501 -114.16604 32521 ft 394 kts 270°
2026-05-05 12:24 33.71084 -114.19818 32728 ft 393 kts 270°
2026-05-05 12:25 33.71664 -114.23018 32940 ft 392 kts 270°
2026-05-05 12:25 33.72243 -114.26218 33140 ft 391 kts 270°
2026-05-05 12:25 33.72819 -114.29405 33322 ft 390 kts 270°
2026-05-05 12:25 33.73395 -114.32593 33495 ft 390 kts 270°
2026-05-05 12:26 33.73971 -114.35770 33720 ft 389 kts 270°
2026-05-05 12:26 33.74540 -114.38935 33876 ft 388 kts 270°
2026-05-05 12:26 33.75670 -114.45265 33916 ft 387 kts 270°
2026-05-05 12:27 33.76800 -114.51586 33915 ft 387 kts 270°
2026-05-05 12:27 33.77513 -114.57886 33915 ft 376 kts 263°
2026-05-05 12:28 33.77879 -114.64148 33915 ft 376 kts 263°
2026-05-05 12:28 33.78244 -114.70432 33916 ft 377 kts 263°
2026-05-05 12:29 33.78605 -114.76725 33917 ft 378 kts 263°
2026-05-05 12:29 33.78964 -114.83025 33919 ft 378 kts 263°
2026-05-05 12:30 33.79317 -114.89329 33919 ft 379 kts 263°
2026-05-05 12:30 33.79669 -114.95651 33922 ft 379 kts 263°
2026-05-05 12:31 33.80020 -115.01976 33932 ft 379 kts 264°
2026-05-05 12:31 33.80367 -115.08305 33936 ft 379 kts 264°
2026-05-05 12:32 33.80712 -115.14592 33936 ft 379 kts 264°
2026-05-05 12:32 33.81052 -115.20928 33930 ft 380 kts 263°
2026-05-05 12:33 33.81393 -115.27270 33931 ft 381 kts 263°
2026-05-05 12:33 33.81731 -115.33632 33932 ft 382 kts 263°
2026-05-05 12:34 33.82065 -115.40008 33937 ft 382 kts 263°
2026-05-05 12:34 33.82681 -115.46409 33937 ft 397 kts 274°
2026-05-05 12:35 33.84632 -115.52762 33936 ft 407 kts 279°
2026-05-05 12:35 33.86695 -115.59118 33940 ft 408 kts 279°
2026-05-05 12:36 33.88755 -115.65481 33944 ft 408 kts 279°
2026-05-05 12:36 33.90798 -115.71855 33950 ft 408 kts 279°
2026-05-05 12:37 33.92837 -115.78231 33954 ft 409 kts 279°
2026-05-05 12:37 33.94877 -115.84627 33956 ft 409 kts 279°
2026-05-05 12:38 33.96920 -115.91029 33966 ft 409 kts 279°
2026-05-05 12:38 33.98957 -115.97426 33967 ft 409 kts 279°
2026-05-05 12:39 34.00996 -116.03826 33975 ft 409 kts 279°
2026-05-05 12:39 34.03027 -116.10235 33980 ft 409 kts 279°
2026-05-05 12:40 34.05056 -116.16647 33989 ft 409 kts 279°
2026-05-05 12:40 34.07079 -116.23070 33993 ft 410 kts 279°
2026-05-05 12:41 34.09102 -116.29496 33990 ft 410 kts 279°
2026-05-05 12:41 34.11123 -116.35927 33983 ft 410 kts 279°
2026-05-05 12:42 34.13145 -116.42377 33988 ft 411 kts 279°
2026-05-05 12:42 34.15171 -116.48838 33990 ft 412 kts 279°
2026-05-05 12:43 34.17197 -116.55317 33988 ft 413 kts 280°
2026-05-05 12:43 34.19213 -116.61774 33982 ft 414 kts 280°
2026-05-05 12:44 34.21241 -116.68298 33985 ft 415 kts 280°
2026-05-05 12:44 34.23266 -116.74846 33991 ft 417 kts 281°
2026-05-05 12:45 34.25291 -116.81407 33991 ft 417 kts 281°
2026-05-05 12:45 34.27321 -116.87982 33996 ft 419 kts 281°
2026-05-05 12:46 34.29362 -116.94585 33994 ft 420 kts 281°
2026-05-05 12:46 34.31403 -117.01214 33993 ft 421 kts 282°
2026-05-05 12:47 34.33446 -117.07867 33994 ft 422 kts 282°
2026-05-05 12:47 34.35487 -117.14527 33997 ft 423 kts 282°
2026-05-05 12:48 34.37182 -117.20080 34001 ft 423 kts 282°
2026-05-05 12:48 34.39221 -117.26774 34004 ft 424 kts 282°
2026-05-05 12:49 34.41258 -117.33488 34010 ft 425 kts 282°
2026-05-05 12:49 34.43308 -117.40209 34012 ft 426 kts 282°
2026-05-05 12:50 34.45357 -117.46953 34016 ft 427 kts 282°
2026-05-05 12:50 34.47402 -117.53714 34021 ft 427 kts 282°
2026-05-05 12:51 34.49433 -117.60477 34025 ft 427 kts 282°
2026-05-05 12:51 34.51464 -117.67252 34016 ft 427 kts 282°
2026-05-05 12:52 34.53498 -117.74024 34019 ft 427 kts 282°
2026-05-05 12:52 34.55527 -117.80800 34018 ft 427 kts 282°
2026-05-05 12:53 34.57549 -117.87574 34015 ft 427 kts 282°
2026-05-05 12:53 34.59564 -117.94361 34008 ft 428 kts 282°
2026-05-05 12:54 34.62609 -118.04547 34007 ft 430 kts 286°
2026-05-05 12:55 34.65595 -118.10905 33992 ft 441 kts 297°
2026-05-05 12:55 34.68995 -118.17128 33986 ft 442 kts 297°
2026-05-05 12:56 34.72389 -118.23382 33982 ft 444 kts 297°
2026-05-05 12:56 34.75780 -118.29654 33990 ft 445 kts 297°
2026-05-05 12:57 34.79181 -118.35956 33992 ft 446 kts 297°
2026-05-05 12:57 34.82590 -118.42264 33993 ft 446 kts 298°
2026-05-05 12:58 34.86000 -118.48583 33996 ft 447 kts 298°
2026-05-05 12:58 34.89408 -118.54918 34007 ft 447 kts 298°
2026-05-05 12:59 34.92819 -118.61260 34012 ft 448 kts 298°
2026-05-05 12:59 34.96228 -118.67622 34010 ft 448 kts 299°
2026-05-05 13:00 35.01319 -118.77157 34017 ft 449 kts 299°
2026-05-05 13:01 35.08139 -118.89931 34015 ft 450 kts 300°
2026-05-05 13:01 35.11545 -118.96338 34018 ft 450 kts 300°
2026-05-05 13:02 35.14947 -119.02750 34017 ft 450 kts 300°
2026-05-05 13:02 35.18352 -119.09179 34020 ft 451 kts 300°
2026-05-05 13:03 35.21757 -119.15617 34022 ft 451 kts 300°
2026-05-05 13:03 35.25170 -119.22068 34023 ft 452 kts 301°
2026-05-05 13:04 35.28578 -119.28540 34023 ft 453 kts 301°
2026-05-05 13:04 35.31986 -119.35027 34023 ft 453 kts 301°
2026-05-05 13:05 35.35394 -119.41522 34021 ft 453 kts 301°
2026-05-05 13:05 35.38804 -119.48031 34027 ft 454 kts 302°
2026-05-05 13:06 35.42192 -119.54506 34033 ft 455 kts 302°
2026-05-05 13:06 35.45610 -119.61043 34033 ft 456 kts 302°
2026-05-05 13:07 35.49041 -119.67646 34037 ft 456 kts 302°
2026-05-05 13:07 35.52432 -119.74178 34037 ft 457 kts 302°
2026-05-05 13:08 35.55855 -119.80765 34033 ft 458 kts 303°
2026-05-05 13:08 35.59284 -119.87359 34046 ft 458 kts 303°
2026-05-05 13:09 35.62673 -119.93947 34048 ft 459 kts 300°
2026-05-05 13:09 35.64959 -120.01249 34050 ft 461 kts 282°
2026-05-05 13:10 35.65793 -120.09049 34049 ft 462 kts 278°
2026-05-05 13:10 35.66566 -120.16919 34054 ft 463 kts 278°
2026-05-05 13:11 35.67339 -120.24767 34061 ft 463 kts 278°
2026-05-05 13:11 35.68186 -120.32612 34069 ft 462 kts 284°
2026-05-05 13:12 35.70405 -120.39979 34084 ft 459 kts 297°
2026-05-05 13:12 35.73139 -120.47082 34092 ft 460 kts 296°
2026-05-05 13:13 35.75859 -120.54203 34098 ft 460 kts 296°
2026-05-05 13:13 35.78571 -120.61332 34102 ft 460 kts 296°
2026-05-05 13:14 35.81284 -120.68466 34104 ft 460 kts 297°
2026-05-05 13:14 35.84001 -120.75601 34106 ft 460 kts 297°
2026-05-05 13:15 35.86706 -120.82743 34105 ft 460 kts 297°
2026-05-05 13:15 35.89402 -120.89882 34097 ft 459 kts 297°
2026-05-05 13:16 35.92087 -120.97030 34096 ft 459 kts 297°
2026-05-05 13:16 35.94774 -121.04186 34091 ft 459 kts 297°
2026-05-05 13:17 35.97458 -121.11333 34091 ft 459 kts 297°
2026-05-05 13:17 36.00136 -121.18491 34085 ft 459 kts 297°
2026-05-05 13:18 36.02810 -121.25661 33997 ft 461 kts 299°
2026-05-05 13:18 36.04153 -121.29262 33741 ft 462 kts 299°
2026-05-05 13:18 36.05653 -121.32754 33496 ft 457 kts 308°
2026-05-05 13:19 36.07552 -121.35867 33245 ft 451 kts 317°
2026-05-05 13:19 36.09796 -121.38542 32998 ft 445 kts 326°
2026-05-05 13:19 36.12307 -121.40734 32746 ft 440 kts 333°
2026-05-05 13:19 36.14905 -121.42747 32499 ft 441 kts 333°
2026-05-05 13:20 36.17498 -121.44762 32247 ft 441 kts 333°
2026-05-05 13:20 36.20096 -121.46788 31547 ft 443 kts 333°
2026-05-05 13:20 36.22710 -121.48828 30648 ft 445 kts 334°
2026-05-05 13:20 36.25333 -121.50881 29710 ft 447 kts 334°
2026-05-05 13:21 36.27961 -121.52942 28724 ft 448 kts 334°
2026-05-05 13:21 36.30604 -121.55013 27729 ft 450 kts 334°
2026-05-05 13:21 36.33219 -121.57063 26668 ft 452 kts 333°
2026-05-05 13:21 36.35883 -121.59156 25527 ft 455 kts 333°
2026-05-05 13:22 36.36616 -121.59732 25251 ft 456 kts 332°
2026-05-05 13:22 36.38416 -121.61152 24848 ft 449 kts 332°
2026-05-05 13:22 36.41013 -121.63207 24555 ft 434 kts 332°
2026-05-05 13:22 36.43502 -121.65184 24429 ft 416 kts 332°
2026-05-05 13:23 36.45896 -121.67083 24298 ft 400 kts 332°
2026-05-05 13:23 36.48203 -121.68906 24050 ft 387 kts 332°
2026-05-05 13:23 36.50458 -121.70680 23700 ft 380 kts 333°
2026-05-05 13:23 36.52694 -121.72428 23256 ft 378 kts 332°
2026-05-05 13:24 36.54911 -121.74168 22730 ft 376 kts 332°
2026-05-05 13:24 36.57116 -121.75908 22187 ft 374 kts 332°
2026-05-05 13:24 36.59302 -121.77638 21666 ft 370 kts 332°
2026-05-05 13:24 36.61467 -121.79350 21138 ft 368 kts 331°
2026-05-05 13:25 36.63621 -121.81052 20618 ft 365 kts 331°
2026-05-05 13:25 36.65757 -121.82741 20094 ft 363 kts 330°
2026-05-05 13:25 36.67876 -121.84421 19582 ft 360 kts 330°
2026-05-05 13:25 36.69982 -121.86099 19058 ft 358 kts 330°
2026-05-05 13:26 36.72074 -121.87767 18564 ft 356 kts 330°
2026-05-05 13:26 36.74228 -121.89222 18059 ft 350 kts 340°
2026-05-05 13:26 36.76542 -121.90094 17525 ft 346 kts 350°
2026-05-05 13:26 36.78885 -121.90728 17038 ft 344 kts 349°
2026-05-05 13:27 36.81214 -121.91372 16548 ft 342 kts 349°
2026-05-05 13:27 36.83526 -121.92020 16060 ft 340 kts 349°
2026-05-05 13:27 36.85828 -121.92671 15579 ft 338 kts 349°
2026-05-05 13:27 36.88108 -121.93314 15096 ft 335 kts 349°
2026-05-05 13:28 36.90376 -121.93951 14628 ft 333 kts 349°
2026-05-05 13:28 36.92630 -121.94583 14149 ft 331 kts 349°
2026-05-05 13:28 36.94867 -121.95208 13678 ft 329 kts 349°
2026-05-05 13:28 36.97072 -121.95925 13217 ft 327 kts 346°
2026-05-05 13:29 36.99249 -121.96750 12745 ft 326 kts 345°
2026-05-05 13:29 37.01394 -121.97614 12283 ft 324 kts 344°
2026-05-05 13:29 37.03534 -121.98488 11820 ft 322 kts 344°
2026-05-05 13:29 37.05659 -121.99352 11363 ft 320 kts 344°
2026-05-05 13:30 37.07775 -122.00200 10907 ft 319 kts 344°
2026-05-05 13:30 37.09877 -122.01035 10454 ft 317 kts 343°
2026-05-05 13:30 37.11953 -122.01852 10232 ft 305 kts 343°
2026-05-05 13:30 37.13931 -122.02630 10100 ft 292 kts 343°
2026-05-05 13:31 37.15844 -122.03378 9860 ft 284 kts 343°
2026-05-05 13:31 37.17719 -122.04112 9740 ft 282 kts 343°
2026-05-05 13:31 37.19569 -122.04836 9528 ft 275 kts 343°
2026-05-05 13:31 37.21359 -122.05535 9213 ft 272 kts 342°
2026-05-05 13:32 37.23181 -122.06247 8860 ft 270 kts 342°
2026-05-05 13:32 37.24943 -122.06935 8513 ft 268 kts 342°
2026-05-05 13:32 37.26719 -122.07629 8161 ft 267 kts 342°
2026-05-05 13:32 37.28482 -122.08321 7810 ft 265 kts 341°
2026-05-05 13:33 37.30239 -122.09011 7459 ft 263 kts 342°
2026-05-05 13:33 37.31984 -122.09700 7110 ft 262 kts 341°
2026-05-05 13:33 37.33714 -122.10384 6764 ft 260 kts 341°
2026-05-05 13:33 37.35436 -122.11065 6420 ft 259 kts 341°
2026-05-05 13:34 37.37148 -122.11741 6080 ft 257 kts 341°
2026-05-05 13:34 37.38862 -122.12386 5654 ft 259 kts 342°
2026-05-05 13:34 37.40604 -122.12981 5295 ft 258 kts 344°
2026-05-05 13:34 37.42349 -122.13554 4887 ft 258 kts 344°
2026-05-05 13:35 37.44076 -122.14119 4546 ft 255 kts 344°
2026-05-05 13:35 37.45782 -122.14681 3945 ft 255 kts 344°
2026-05-05 13:35 37.47486 -122.15243 3629 ft 252 kts 344°
2026-05-05 13:35 37.49161 -122.15799 3437 ft 244 kts 344°
2026-05-05 13:36 37.50251 -122.16165 3352 ft 237 kts 344°
2026-05-05 13:36 37.52290 -122.16880 3228 ft 221 kts 338°
2026-05-05 13:36 37.53184 -122.17478 3172 ft 212 kts 324°
2026-05-05 13:36 37.54168 -122.18723 2988 ft 198 kts 304°
2026-05-05 13:37 37.54820 -122.20197 2743 ft 189 kts 297°
2026-05-05 13:37 37.55433 -122.21649 2498 ft 181 kts 297°
2026-05-05 13:37 37.56182 -122.23426 2194 ft 167 kts 297°
2026-05-05 13:37 37.56535 -122.24261 2071 ft 160 kts 297°
2026-05-05 13:38 37.57041 -122.25463 1850 ft 152 kts 297°
2026-05-05 13:38 37.57533 -122.26631 1650 ft 150 kts 297°
2026-05-05 13:38 37.58025 -122.27799 1448 ft 149 kts 298°
2026-05-05 13:38 37.58500 -122.28928 1266 ft 147 kts 298°
2026-05-05 13:39 37.58972 -122.30048 1067 ft 143 kts 297°
2026-05-05 13:39 37.59436 -122.31151 876 ft 142 kts 297°
2026-05-05 13:39 37.59891 -122.32249 660 ft 141 kts 296°
2026-05-05 13:39 37.60350 -122.33336 497 ft 141 kts 297°
2026-05-05 13:40 37.60812 -122.34425 295 ft 140 kts 297°
2026-05-05 13:40 37.61269 -122.35514 106 ft 140 kts 296°
2026-05-05 13:40 37.61709 -122.36571 28 ft 126 kts 299°
2026-05-05 13:40 37.62066 -122.37416 23 ft 87 kts 298°
2026-05-05 13:41 37.62266 -122.37900 24 ft 41 kts 298°
2026-05-05 13:41 37.62394 -122.38204 22 ft 38 kts 298°
2026-05-05 13:41 37.62495 -122.38482 22 ft 31 kts 282°
2026-05-05 13:41 37.62503 -122.38683 22 ft 17 kts 267°
2026-05-05 13:42 37.62497 -122.38804 22 ft 13 kts 260°
2026-05-05 13:42 37.62423 -122.38898 23 ft 17 kts 208°
2026-05-05 13:42 37.62362 -122.38937 22 ft 0 kts 207°
2026-05-05 13:42 37.62351 -122.38939 23 ft 5 kts 178°
2026-05-05 13:43 37.62324 -122.38892 24 ft 8 kts 116°
2026-05-05 13:43 37.62294 -122.38814 24 ft 13 kts 116°
2026-05-05 13:43 37.62242 -122.38688 22 ft 17 kts 120°
2026-05-05 13:43 37.62184 -122.38548 24 ft 19 kts 117°
2026-05-05 13:44 37.62122 -122.38398 22 ft 20 kts 117°
2026-05-05 13:44 37.62056 -122.38240 23 ft 21 kts 118°
2026-05-05 13:44 37.61989 -122.38080 23 ft 19 kts 117°
2026-05-05 13:44 37.61908 -122.37945 23 ft 20 kts 141°
2026-05-05 13:45 37.61781 -122.37873 22 ft 18 kts 170°
2026-05-05 13:45 37.61655 -122.37884 23 ft 19 kts 197°
2026-05-05 13:45 37.61534 -122.37959 22 ft 20 kts 207°
2026-05-05 13:45 37.61407 -122.38042 22 ft 21 kts 207°
2026-05-05 13:46 37.61281 -122.38125 23 ft 19 kts 209°
2026-05-05 13:46 37.61178 -122.38194 23 ft 15 kts 207°
2026-05-05 13:46 37.61090 -122.38250 22 ft 13 kts 206°
2026-05-05 13:46 37.61013 -122.38301 23 ft 13 kts 209°
2026-05-05 13:47 37.60945 -122.38364 24 ft 11 kts 240°
2026-05-05 13:47 37.60944 -122.38448 24 ft 8 kts 253°
2026-05-05 13:47 37.60903 -122.38499 22 ft 9 kts 213°
2026-05-05 13:47 37.60889 -122.38578 24 ft 11 kts 288°
2026-05-05 13:48 37.60922 -122.38654 23 ft 9 kts 300°
2026-05-05 13:48 37.60951 -122.38722 23 ft 9 kts 298°
2026-05-05 13:48 37.60979 -122.38787 23 ft 8 kts 297°
2026-05-05 13:48 37.61021 -122.38829 24 ft 8 kts 352°
2026-05-05 13:49 37.61071 -122.38803 22 ft 8 kts 29°
2026-05-05 13:49 37.61117 -122.38770 23 ft 8 kts 29°
2026-05-05 13:49 37.61166 -122.38737 23 ft 9 kts 25°
2026-05-05 13:49 37.61216 -122.38706 22 ft 8 kts 27°
2026-05-05 13:50 37.61262 -122.38676 23 ft 6 kts 27°
2026-05-05 13:50 37.61293 -122.38653 22 ft 4 kts 44°
2026-05-05 13:50 37.61299 -122.38631 22 ft 2 kts 70°
2026-05-05 13:50 37.61307 -122.38606 22 ft 3 kts 68°
2026-05-05 13:51 37.61314 -122.38585 22 ft 2 kts 68°
2026-05-05 13:51 37.61321 -122.38575 23 ft 2 kts 47°
2026-05-05 13:51 37.61328 -122.38565 24 ft 2 kts 47°
2026-05-05 13:51 37.61330 -122.38562 22 ft 0 kts 48°